Regional Weather Roundup
Issued by NWS San Diego, CA

Home | Current Version | Previous Version | Text Only | Print | Product List | Glossary On
Versions: 1 2 3 4 5 6 7 8 9 10 11 12 13 14 15 16 17 18 19 20 21 22 23 24 25 26 27 28 29 30 31 32 33 34 35 36 37 38 39 40 41 42 43 44 45 46 47 48 49 50
000
ASUS46 KSGX 300611
RWRSGX

SAN DIEGO HOURLY WEATHER ROUNDUP
NATIONAL WEATHER SERVICE SAN DIEGO CA
1100 PM PDT SUN MAR 29 2015

NOTE: "FAIR" INDICATES FEW OR NO CLOUDS BELOW 12,000 FEET WITH NO
SIGNIFICANT WEATHER AND/OR OBSTRUCTIONS TO VISIBILITY.

CAZ042-043-060-061-PZZ750-775-300700-

GREATER SAN DIEGO AREA

CITY           SKY/WX    TMP DP  RH WIND       PRES   REMARKS
LINDBERGH FLD  PTCLDY    64  57  78 NE3       30.04F
POINT LOMA       N/A     60  57  90 NE2         N/A
CHULA VISTA      N/A     62  59  92 CALM      29.97F
IMPERIAL BEACH PTCLDY    59  55  87 S3        30.04S
BROWN FIELD    PTCLDY    58  57  97 CALM      30.03F
MIRAMAR MCAS   MOCLDY    57  53  86 E5        30.03S
MONTGOMERY FLD CLEAR     61  56  83 NE3       30.04S

$$

NORTH SAN DIEGO COUNTY

CITY           SKY/WX    TMP DP  RH WIND       PRES   REMARKS
CAMP PENDLETON MOCLDY    57  53  86 NE3       30.03S FOG
OCEANSIDE AP   CLEAR     55  52  89 CALM      30.02S
VISTA            N/A     57  51  80 CALM      30.02S
CARLSBAD       CLEAR     62  57  83 CALM      30.02S
FALLBROOK        N/A     58  58 100 CALM      30.03R
SAN MARCOS       N/A     60  55  84 CALM      30.01S
POWAY            N/A     58  54  85 CALM      30.05S

$$

EAST SAN DIEGO COUNTY

CITY           SKY/WX    TMP DP  RH WIND       PRES   REMARKS
RAMONA         CLEAR     53  44  71 CALM      30.05S
SANTEE LAKES     N/A     59  55  87 CALM      30.03F
LA MESA          N/A     61  57  88 CALM      29.97S
DESCANSO N       N/A     55  34  44 E7        29.92S
MT. LAGUNA OBS   N/A     55  16  21 CALM      29.77S
CAMPO            N/A     53  39  59 NE5       30.06R

$$

ORANGE COUNTY AND THE LOS ANGELES BASIN

CITY           SKY/WX    TMP DP  RH WIND       PRES   REMARKS
JOHN WAYNE AP  PTCLDY    61  57  87 S5        30.03R
LAKE FOREST FR   N/A     59  53  79 CALM      29.93R
SANTA ANA        N/A     63  56  78 CALM      29.98S
HUNTINGTON BCH   N/A     61  59  93 W1        30.04S
LOS ALAMITOS   FAIR      59  58  96 CALM      30.03R
FULLERTON      CLEAR     63  56  78 S3        30.02R
LONG BEACH     CLEAR     63  57  81 NW3       30.03R
L.A. AP        MOCLDY    60  58  92 W8        30.03S
L.A. DOWNTOWN  PTCLDY    61  58  90 CALM      30.02S

$$

THE INLAND EMPIRE

CITY           SKY/WX    TMP DP  RH WIND       PRES   REMARKS
CORONA         CLEAR     62  56  81 W6        30.03S
CHINO          CLEAR     61  51  70 CALM      30.04R
ONTARIO        CLEAR     66  49  54 SW3       30.03R
RIVERSIDE AP   CLEAR     67  50  54 NW3       30.03S
MARCH ARB      CLEAR     57  40  52 NW6       30.04S
HORSETHIEF CYN   N/A     61  41  48 SW2       29.99S
MENIFEE          N/A     64  45  51 CALM      30.07R
HEMET EAST       N/A     64  25  22 CALM      30.03R
FRENCH VALLEY  FAIR      59  41  51 CALM      30.05S
TEMECULA         N/A     62  51  67 CALM      30.01R

$$

SAN BERNARDINO AND RIVERSIDE COUNTY MOUNTAINS

CITY           SKY/WX    TMP DP  RH WIND       PRES   REMARKS
BIG BEAR AP    CLEAR     36  23  60 CALM      30.27S

$$

SOUTHERN DESERT INCLUDING THE COACHELLA VALLEY

CITY           SKY/WX    TMP DP  RH WIND       PRES   REMARKS
PALM SPRINGS   CLEAR     79  37  22 SW7       29.94R
THOUSAND PALMS   N/A     81  36  20 NW8       29.92R
THERMAL        PTCLDY    72  36  26 N3        29.88S
BLYTHE         CLOUDY    78  36  21 CALM      29.91R
IMPERIAL AP    MOCLDY    75  45  34 W7        29.89R
EL CENTRO NAS  MOCLDY    78  34  20 W12       29.89R
YUMA AZ        MOCLDY    76  38  25 S5        29.91S

$$

UPPER DESERT

CITY           SKY/WX    TMP DP  RH WIND       PRES   REMARKS
VICTORVILLE AP CLEAR     63  28  27 SW6       30.08S
HESPERIA         N/A     64  35  33 CALM      30.11R
PALMDALE       CLEAR     61  31  32 SW8       30.07S
LANCASTER      CLEAR     65  37  35 W16       30.06S
EDWARDS AFB    CLEAR     63  41  43 SW9       30.03S
DAGGETT        CLEAR     73  29  19 W9        30.01R
29 PALMS N     CLEAR     71  21  15 N3        30.08R
NEEDLES        PTCLDY    78  21  12 CALM      29.93R

$$

REGIONAL REPORTS

CITY           SKY/WX    TMP DP  RH WIND       PRES   REMARKS
SANTA BARBARA  CLOUDY    58  57  97 E9        30.01R FOG
SANDBERG       CLEAR     61  29  29 NW13      30.16S
MT. WILSON       N/A     55  19  24 S7          N/A
LAS VEGAS NV   PTCLDY    73  24  16 W7        29.97R
PHOENIX AZ     MOCLDY    78  26  14 E8        29.94S
TIJUANA        PTCLDY    61  55  82 CALM      30.06F
ENSENADA NW      N/A     61  32  33 NW2       30.01S

$$

OFFSHORE ISLANDS

CITY           SKY/WX    TMP DP  RH WIND       PRES   REMARKS
CATALINA ARPT  CLEAR     61  46  57 E6        30.05S
SAN NICOLAS IS CLEAR    N/A N/A N/A W9        30.02S

$$

MARINE AND OFFSHORE BUOY REPORTS

STATION/POSITION SKY/WX   TEMP    WIND        PRES    SWELL
                          AIR SEA DIR/SP/G            HT/PER/DIR
                          (F)     (DEG/KT/KT) (MB)    (FT/S/D)
TANNER BANKS               59 61  350/ 12/ 16 1016.8R   8/320/11
S CLEMENTE BASIN           61 65  280/  2/  4 1016.8R   7/160/17
SAN NICOLAS IS.               60                N/A     7/180/17
SO. S. ROSA ISLA           59 60  300/ 14/ 16 1015.7S   7/11
W. S. BARBARA CH           57 57  320/ 16/ 19 1015.4R   7/250/17
S. MONICA BASIN            61 64  290/  2/  4 1016.6S   3/190/15
S PEDRO CHANNEL               64                N/A     3/160/17
DANA POINT                    65                N/A     5/190/17
OCEANSIDE OFFSHR              67                N/A     5/200/17
TORREY PINES OTR              68                N/A     5/200/17
LA JOLLA 1                 63 66  110/  1/  2 1016.8S
MISSION BAY BUOY              67                N/A     5/190/17
SAN DIEGO BAY                 69              1017.4R
POINT LOMA SOUTH              67                N/A     7/180/17

$$



USA.gov is the U.S. government's official web portal to all federal, state and local government web resources and services.